Location: Seven Kings
(51.5667°N, 0.1000°E)
Time: 14:02:53
(UTC+00:00)

ERBS - Pass Details

Date: 29 October 2020
Orbit: 407 x 422 km, 57.0° (Epoch: 28 November)

Event Time Altitude Azimuth Distance (km) Brightness Sun altitude
Rises 18:15:01 0° 293° (WNW) 2,369 7.3 -15.7°
Reaches altitude 10° 18:17:13 10° 302° (WNW) 1,508 5.9 -16.0°
Maximum altitude 18:20:21 34° 10° (N) 713 3.3 -16.5°
Enters shadow 18:21:03 31° 38° (NE) 773 3.2 -16.6°
